Weather History for Cincinnati, OH

Change the Weather History Date:

Friday, December 6, 2013

  Actual Average Record
Temperature  
Mean Temperature 30 °F -  
Max Temperature 33 °F 46 °F 73 °F (1998)
Min Temperature 28 °F 27 °F 2 °F (1977)
Degree Days  
Heating Degree Days 34    
Moisture  
Dew Point 27 °F    
Average Humidity 90    
Maximum Humidity 96    
Minimum Humidity 81    
Precipitation  
Precipitation 0.68 in - - ()
Sea Level Pressure  
Sea Level Pressure 30.25 in    
Wind  
Wind Speed 8 mph (North)    
Max Wind Speed 13 mph    
Max Gust Speed 18 mph    
Visibility 4 miles    
Events Fog , Rain , Snow    
Averages and records for this station are not official NWS values.
T = Trace of Precipitation, MM = Missing Value Source: NWS Daily Summary

Daily Weather History Graph

Daily Weather History Graph

Search for Another Location

Airport:

Trip Planner

Search our weather history database for the weather conditions in past years. The results will help you decide how hot, cold, wet, or windy it might be!

Date:

Astronomy

Dec. 06, 2013 Rise Set
Actual Time 7:42 AM EST 5:14 PM EST
Civil Twilight 7:12 AM EST 5:44 PM EST
Nautical Twilight 6:39 AM EST 6:17 PM EST
Astronomical Twilight 6:07 AM EST 6:50 PM EST
Moon 10:48 AM EST (12/6) 9:44 PM EST (12/6)
Length of Visible Light 10h 31m
Length of Day
9h 32m
Waxing Crescent, 19% of the Moon is Illuminated
Dec 6
Waxing Crescent
Dec 9
First Quarter
Dec 17
Full
Dec 25
Last Quarter
Jan 1
New

Hourly Weather History & Observations

Time (EST) Temp. Windchill Dew Point Humidity Pressure Visibility Wind Dir Wind Speed Gust Speed Precip Events Conditions
12:07 AM 33.8 °F 27.0 °F 30.2 °F 87% 30.16 in 10.0 mi North 8.1 mph - N/A   Overcast
12:53 AM 33.1 °F 26.9 °F 28.9 °F 85% 30.17 in 10.0 mi NNW 6.9 mph - N/A   Overcast
1:09 AM 33.8 °F 25.3 °F 28.4 °F 81% 30.17 in 8.0 mi NNW 11.5 mph - 0.01 in Rain Rain
1:33 AM 32.0 °F 26.4 °F 28.4 °F 87% 30.18 in 5.0 mi North 5.8 mph - 0.04 in   Overcast
1:48 AM 32.0 °F 26.4 °F 30.2 °F 93% 30.17 in 8.0 mi North 5.8 mph - 0.04 in   Overcast
1:53 AM 32.0 °F 24.8 °F 28.9 °F 88% 30.18 in 10.0 mi North 8.1 mph - 0.04 in   Overcast
2:03 AM 32.0 °F 26.4 °F 28.4 °F 87% 30.16 in 9.0 mi North 5.8 mph - 0.00 in Rain Light Freezing Rain
2:53 AM 32.0 °F 25.6 °F 30.0 °F 92% 30.16 in 5.0 mi North 6.9 mph - 0.04 in Rain Light Freezing Rain
3:17 AM 32.0 °F 26.4 °F 30.2 °F 93% 30.21 in 4.0 mi NW 5.8 mph - 0.05 in Rain Light Freezing Rain
3:51 AM 32.0 °F 25.6 °F 30.2 °F 93% 30.21 in 5.0 mi North 6.9 mph - 0.11 in Rain Light Freezing Rain
3:53 AM 32.0 °F 26.4 °F 30.0 °F 92% 30.22 in 5.0 mi NNW 5.8 mph - 0.11 in Rain Light Freezing Rain
4:14 AM 32.0 °F 25.6 °F 30.2 °F 93% 30.22 in 5.0 mi North 6.9 mph - 0.01 in Rain Light Freezing Rain
4:53 AM 32.0 °F 24.8 °F 30.0 °F 92% 30.21 in 5.0 mi North 8.1 mph - 0.04 in Rain Light Freezing Rain
5:34 AM 30.2 °F 22.6 °F 28.4 °F 93% 30.20 in 7.0 mi North 8.1 mph - 0.01 in   Overcast
5:50 AM 30.2 °F 23.4 °F 28.4 °F 93% 30.20 in 8.0 mi North 6.9 mph - 0.02 in   Overcast
5:53 AM 30.9 °F 23.5 °F 28.0 °F 89% 30.22 in 9.0 mi North 8.1 mph - 0.02 in   Overcast
6:34 AM 30.2 °F 23.4 °F 28.4 °F 93% 30.21 in 6.0 mi NNE 6.9 mph - 0.00 in Rain Light Freezing Rain
6:53 AM 30.9 °F 23.5 °F 28.9 °F 92% 30.22 in 6.0 mi NE 8.1 mph - 0.01 in Rain Light Freezing Rain
7:13 AM 30.2 °F 23.4 °F 28.4 °F 93% 30.21 in 7.0 mi North 6.9 mph - 0.00 in   Overcast
7:35 AM 30.2 °F 20.8 °F 28.4 °F 93% 30.22 in 5.0 mi NNW 11.5 mph - 0.00 in Rain Light Freezing Rain
7:53 AM 30.0 °F 21.7 °F 27.0 °F 88% 30.26 in 5.0 mi NNW 9.2 mph - 0.00 in Rain Light Freezing Rain
8:53 AM 30.0 °F 22.4 °F 28.0 °F 92% 30.26 in 5.0 mi North 8.1 mph - 0.01 in Rain Light Freezing Rain
9:53 AM 30.0 °F 22.4 °F 27.0 °F 88% 30.26 in 5.0 mi North 8.1 mph - 0.00 in Rain Light Freezing Rain
10:53 AM 30.0 °F 22.4 °F 28.0 °F 92% 30.27 in 4.0 mi North 8.1 mph - 0.01 in Rain Light Freezing Rain
11:53 AM 30.0 °F 20.5 °F 27.0 °F 88% 30.26 in 3.0 mi North 11.5 mph - 0.03 in Rain Light Freezing Rain
12:32 PM 30.2 °F 21.3 °F 26.6 °F 86% 30.23 in 2.5 mi North 10.4 mph - 0.02 in Snow Light Snow
12:43 PM 30.2 °F 21.9 °F 26.6 °F 86% 30.24 in 1.5 mi North 9.2 mph - 0.03 in Snow Light Snow
12:53 PM 30.0 °F 20.5 °F 27.0 °F 88% 30.22 in 1.5 mi North 11.5 mph - 0.03 in Snow Light Snow
1:08 PM 28.4 °F 20.4 °F 26.6 °F 93% 30.23 in 0.8 mi North 8.1 mph - 0.01 in Snow Light Snow
1:42 PM 30.2 °F 21.9 °F 28.4 °F 93% 30.20 in 1.0 mi NNE 9.2 mph - 0.05 in Snow Light Snow
1:53 PM 30.0 °F 20.5 °F 27.0 °F 88% 30.20 in 2.5 mi NNE 11.5 mph - 0.06 in Snow Light Snow
2:00 PM 30.2 °F 22.6 °F 26.6 °F 86% 30.19 in 3.0 mi North 8.1 mph 18.4 mph 0.00 in Snow Light Snow
2:13 PM 30.2 °F 22.6 °F 26.6 °F 86% 30.21 in 3.0 mi North 8.1 mph - 0.00 in Snow Light Snow
2:21 PM 30.2 °F 20.2 °F 26.6 °F 86% 30.20 in 2.5 mi North 12.7 mph 17.3 mph 0.01 in Snow Light Snow
2:29 PM 30.2 °F 20.8 °F 26.6 °F 86% 30.20 in 3.0 mi North 11.5 mph - 0.01 in Snow Light Snow
2:33 PM 30.2 °F 20.2 °F 26.6 °F 86% 30.21 in 2.5 mi North 12.7 mph - 0.02 in Snow Light Snow
2:53 PM 28.9 °F 19.2 °F 26.1 °F 89% 30.21 in 0.8 mi North 11.5 mph - 0.04 in Snow Light Snow
3:29 PM 28.4 °F 21.2 °F 26.6 °F 93% 30.23 in 1.0 mi North 6.9 mph - 0.05 in Snow Light Snow
3:37 PM 28.4 °F 20.4 °F 26.6 °F 93% 30.21 in 0.8 mi NNE 8.1 mph - 0.06 in Snow Light Snow
3:53 PM 28.9 °F 22.8 °F 27.0 °F 92% 30.25 in 0.8 mi North 5.8 mph - 0.08 in Snow Light Snow
4:00 PM 28.4 °F 21.2 °F 26.6 °F 93% 30.23 in 0.2 mi NNE 6.9 mph - 0.01 in Fog , Snow Snow
4:10 PM 28.4 °F 23.3 °F 26.6 °F 93% 30.25 in 0.5 mi North 4.6 mph - 0.02 in Fog , Snow Snow
4:53 PM 28.9 °F 21.1 °F 27.0 °F 92% 30.27 in 0.5 mi North 8.1 mph - 0.06 in Fog , Snow Snow
5:27 PM 28.4 °F 23.3 °F 26.6 °F 93% 30.26 in 0.8 mi NNE 4.6 mph - 0.03 in Snow Light Snow
5:53 PM 28.9 °F 25.2 °F 27.0 °F 92% 30.28 in 0.8 mi NNE 3.5 mph - 0.04 in Snow Light Snow
6:20 PM 28.4 °F 21.2 °F 26.6 °F 93% 30.33 in 1.0 mi North 6.9 mph - 0.02 in Snow Light Snow
6:28 PM 28.4 °F 19.7 °F 26.6 °F 93% 30.32 in 1.0 mi North 9.2 mph - 0.02 in Snow Light Snow
6:34 PM 28.4 °F 20.4 °F 26.6 °F 93% 30.31 in 1.0 mi North 8.1 mph - 0.02 in Snow Light Snow
6:53 PM 28.0 °F 24.2 °F 27.0 °F 96% 30.34 in 0.8 mi North 3.5 mph - 0.04 in Snow Light Snow
7:01 PM 28.4 °F 22.2 °F 26.6 °F 93% 30.30 in 0.5 mi NNE 5.8 mph - 0.01 in Fog , Snow Snow
7:13 PM 28.4 °F 22.2 °F 26.6 °F 93% 30.30 in 1.0 mi North 5.8 mph - 0.02 in Snow Light Snow
7:21 PM 28.4 °F 22.2 °F 26.6 °F 93% 30.32 in 1.2 mi North 5.8 mph - 0.02 in Snow Light Snow
7:43 PM 28.4 °F 19.7 °F 26.6 °F 93% 30.31 in 1.0 mi North 9.2 mph - 0.02 in Snow Light Snow
7:53 PM 28.0 °F 20.0 °F 25.0 °F 88% 30.35 in 1.0 mi North 8.1 mph - 0.02 in Snow Light Snow
8:31 PM 28.4 °F 19.7 °F 24.8 °F 86% 30.35 in 4.0 mi NNW 9.2 mph - 0.00 in   Overcast
8:53 PM 28.0 °F 19.3 °F 25.0 °F 88% 30.38 in 4.0 mi North 9.2 mph - 0.00 in   Overcast
9:53 PM 28.0 °F 22.8 °F 25.0 °F 88% 30.39 in 3.0 mi North 4.6 mph - 0.00 in Snow Light Snow
10:53 PM 28.0 °F 20.0 °F 25.0 °F 88% 30.41 in 7.0 mi North 8.1 mph - 0.00 in   Overcast
11:53 PM 28.0 °F 20.8 °F 25.0 °F 88% 30.42 in 10.0 mi North 6.9 mph - N/A   Overcast